Dewpoint
23 23 22 20 19 17 17 16 14 13 12 13 14 15 16 20 21 19 18 15 17 21
19 18 17 15 15 15 13 12 12 12 12 13 14 14 15 18 15 16 16 17 18 19
15 14 13 12 10 11 11 11 12 12 13 14 14 14 14 16 16 14 16 18 18 19
13 12 11 11 10 10 11 11 12 13 13 14 14 14 15 14 14 14 16 18 20 21
13 11 11 11 11 12 11 12 13 14 14 15 16 16 16 14 14 14 17 19 21 21
13 12 11 12 12 13 13 13 14 15 16 16 18 18 16 15 14 16 18 20 21 22
13 12 13 14 14 14 14 14 15 16 17 17 16 16 15 17 18 19 19 21 23 22
15 15 15 15 14 14 15 15 16 15 15 15 15 11 19 20 20 19 19 21 21 22
15 14 15 14 13 13 14 14 14 14 14 14 12 23 25 23 19 19 19 20 20 21
14 14 13 12 12 12 13 13 13 13 13 13 14 23 25 26 21 20 20 20 20 20
13 11 11 11 11 12 12 12 12 12 13 14 11 23 26 27 22 21 21 21 21 21
11 10 10 10 11 11 12 13 12 13 13 11 13 23 25 25 21 21 21 21 22 26
11 9 10 11 12 12 12 12 14 12 11 16 12 21 25 24 21 21 21 25 27 27
10 10 11 12 12 12 12 13 12 10 10 11 14 18 25 25 21 21 27 23 21 20
Lifted_Index
10 10 10 10 10 9 9 10 13 15 17 18 19 20 20 20 20 20 21 21 21 21
10 10 10 10 10 9 10 11 14 16 18 19 19 20 20 20 20 21 21 21 21 21
10 10 10 9 9 10 11 13 15 17 18 19 19 20 20 20 21 21 21 21 21 21
10 10 9 9 9 11 13 15 17 18 19 19 19 20 20 21 21 21 21 21 21 22
9 9 9 9 10 13 15 17 18 19 19 19 20 20 20 21 21 21 21 21 22 22
9 9 9 10 12 15 17 18 18 19 19 19 20 20 21 21 21 21 21 22 22 22
8 9 10 12 14 16 18 18 18 19 19 20 20 21 21 21 21 21 22 22 22 22
9 9 11 13 15 17 18 18 19 19 20 20 20 21 21 21 21 22 22 22 21 21
9 10 12 14 16 17 18 18 19 19 20 20 21 21 22 22 22 22 22 22 21 21
10 11 13 15 17 17 18 18 19 19 20 20 21 21 22 22 22 22 22 21 21 20
11 12 14 16 17 17 18 18 19 19 20 20 21 22 22 22 22 22 21 20 19 18
13 14 16 16 16 17 18 18 19 19 20 20 21 22 22 22 21 21 20 19 17 16
15 16 16 16 16 17 18 18 19 19 20 21 22 22 22 21 21 20 19 17 16 16
17 17 16 16 16 17 18 18 18 19 20 21 22 22 22 21 20 19 18 16 16 15